Change the Weather History Date:

Friday, January 7, 2011

  Actual Average Record
Temperature  
Mean Temperature 12 °F -  
Max Temperature 16 °F 23 °F 53 °F (2003)
Min Temperature 7 °F 8 °F -17 °F (2014)
Degree Days  
Heating Degree Days 54    
Moisture  
Dew Point 5 °F    
Average Humidity 74    
Maximum Humidity 85    
Minimum Humidity 64    
Precipitation  
Precipitation 0.00 in - - ()
Sea Level Pressure  
Sea Level Pressure 29.66 in    
Wind  
Wind Speed 9 mph (NW)    
Max Wind Speed 22 mph    
Max Gust Speed 30 mph    
Visibility 7 miles    
Events Snow    
Averages and records for this station are not official NWS values.
T = Trace of Precipitation, MM = Missing Value Source: NWS Daily Summary

Daily Weather History Graph

Daily Weather History Graph

Search for Another Location

Airport or City:

Trip Planner

Search our weather history database for the weather conditions in past years. The results will help you decide how hot, cold, wet, or windy it might be!

Date:

Astronomy

Jan. 07, 2011 Rise Set
Actual Time 7:51 AM CST 4:49 PM CST
Civil Twilight 7:17 AM CST 5:22 PM CST
Nautical Twilight 6:41 AM CST 5:59 PM CST
Astronomical Twilight 6:05 AM CST 6:34 PM CST
Moon 9:25 AM CST (1/7) 8:35 PM CST (1/7)
Length of Visible Light 10h 04m
Length of Day
8h 58m
Waxing Crescent, 11% of the Moon is Illuminated
Jan 7
Waxing Crescent
Jan 12
First Quarter
Jan 19
Full
Jan 26
Last Quarter
Feb 2
New

Hourly Weather History & Observations

Time (CST) Temp. Windchill Dew Point Humidity Pressure Visibility Wind Dir Wind Speed Gust Speed Precip Events Conditions
12:04 AM 12.2 °F 4.3 °F 8.6 °F 85% 29.60 in 5.0 mi NW 4.6 mph - 0.00 in Snow Light Snow
12:53 AM 12.9 °F 5.2 °F 8.1 °F 81% 29.64 in 8.0 mi North 4.6 mph - 0.00 in Snow Light Snow
1:53 AM 12.9 °F 5.2 °F 8.1 °F 81% 29.63 in 7.0 mi North 4.6 mph - 0.00 in   Overcast
2:53 AM 12.9 °F 5.2 °F 8.1 °F 81% 29.63 in 8.0 mi NW 4.6 mph - 0.00 in   Overcast
3:53 AM 12.9 °F - 8.1 °F 81% 29.60 in 7.0 mi Calm Calm - 0.00 in   Overcast
4:53 AM 10.9 °F 2.9 °F 7.0 °F 84% 29.62 in 9.0 mi WNW 4.6 mph - N/A   Overcast
5:53 AM 12.9 °F 3.8 °F 8.1 °F 81% 29.62 in 6.0 mi NW 5.8 mph - N/A   Haze
6:53 AM 12.9 °F 5.2 °F 8.1 °F 81% 29.60 in 6.0 mi WNW 4.6 mph - 0.00 in   Haze
7:53 AM 12.9 °F -0.2 °F 8.1 °F 81% 29.60 in 8.0 mi NW 10.4 mph - N/A   Overcast
8:53 AM 12.9 °F -0.2 °F 7.0 °F 77% 29.61 in 9.0 mi NW 10.4 mph - N/A   Overcast
9:17 AM 14.0 °F 2.0 °F 8.6 °F 79% 29.56 in 2.5 mi WNW 9.2 mph - 0.00 in Snow Light Snow
9:53 AM 14.0 °F -0.2 °F 7.0 °F 74% 29.62 in 2.5 mi NW 12.7 mph 21.9 mph 0.00 in Snow Light Snow
10:53 AM 14.0 °F -0.2 °F 7.0 °F 74% 29.61 in 4.0 mi NW 12.7 mph 21.9 mph 0.00 in Snow Light Snow
11:53 AM 16.0 °F -0.9 °F 7.0 °F 68% 29.58 in 5.0 mi WNW 19.6 mph 26.5 mph 0.00 in   Overcast
12:10 PM 15.8 °F -1.1 °F 6.8 °F 68% 29.53 in 4.0 mi NW 19.6 mph 28.8 mph 0.00 in   Overcast
1:53 PM 12.9 °F -5.7 °F 5.0 °F 71% 29.58 in 4.0 mi NNW 21.9 mph 29.9 mph 0.00 in   Haze
2:53 PM 12.9 °F -3.9 °F 5.0 °F 71% 29.62 in 5.0 mi NNW 17.3 mph 26.5 mph 0.00 in Snow Light Snow
3:53 PM 12.9 °F -3.9 °F 3.0 °F 65% 29.66 in 9.0 mi NNW 17.3 mph 26.5 mph 0.00 in   Overcast
4:53 PM 10.0 °F -6.5 °F -0.0 °F 64% 29.70 in 8.0 mi North 15.0 mph 24.2 mph N/A   Overcast
5:53 PM 9.0 °F -6.6 °F 1.0 °F 70% 29.73 in 10.0 mi NNW 12.7 mph - N/A   Overcast
6:32 PM 10.4 °F -6.0 °F 1.4 °F 67% 29.70 in 10.0 mi NNW 15.0 mph 21.9 mph N/A   Overcast
6:53 PM 10.0 °F -7.1 °F 1.0 °F 67% 29.75 in 10.0 mi NNW 16.1 mph 26.5 mph N/A   Overcast
7:06 PM 10.4 °F -5.4 °F 1.4 °F 67% 29.71 in 10.0 mi NNW 13.8 mph 20.7 mph N/A   Overcast
8:44 PM 8.6 °F -5.5 °F 1.4 °F 73% 29.72 in 10.0 mi NW 10.4 mph - N/A   Overcast
8:53 PM 9.0 °F -7.3 °F 1.0 °F 70% 29.78 in 10.0 mi NNW 13.8 mph - N/A   Overcast
9:53 PM 7.0 °F -5.7 °F -0.0 °F 73% 29.80 in 10.0 mi NW 8.1 mph - N/A   Mostly Cloudy
10:53 PM 7.0 °F -6.6 °F -0.0 °F 73% 29.81 in 10.0 mi WNW 9.2 mph - N/A   Overcast
11:53 PM 8.1 °F -7.0 °F 1.0 °F 73% 29.82 in 10.0 mi NW 11.5 mph 17.3 mph N/A   Overcast